EW9968 Weather Reports


Display with metric or nautical units.
time (UTC)temp
F
wind
direction
speed
MPH
gust
MPH
rain 1hr
in
rain 24hr
in
rain mn
in
humidity
%
barometer
mb
20260905101523 0 0.0 0.0 0.00 0.00 0.00 1008.7
20260905100018 0 0.0 0.0 0.00 0.00 0.00 1008.8
20260905094517 0 0.0 0.0 0.00 0.00 0.00 1008.6
20260905093009 0 0.0 0.0 0.00 0.00 0.00 1008.6
20260905091505 0 0.0 0.0 0.00 0.00 0.00 1008.6
20260905090003 0 0.0 0.0 0.00 0.00 0.00 1008.5
20260905084608 0 0.0 0.0 0.00 0.00 0.00 1008.3
20260905083053 0 0.0 0.0 0.00 0.00 0.00 1008.3
20260905081548 0 0.0 0.0 0.00 0.00 0.00 1008.3
20260905080110 0 0.0 0.0 0.00 0.00 0.00 1008.2
20260905074538 0 0.0 0.0 0.00 0.00 0.00 1008.3
20260905073035 0 0.0 0.0 0.00 0.00 0.00 1008.4
20260905071532 0 0.0 0.0 0.00 0.00 0.00 1008.5
20260905070031 0 0.0 0.0 0.00 0.00 0.00 1008.5
20260905064521 0 0.0 0.0 0.00 0.00 0.00 1008.6
20260905063017 0 0.0 0.0 0.00 0.00 0.00 1008.7
20260905061515 0 0.0 0.0 0.00 0.00 0.00 1008.9
20260905060026 0 0.0 0.0 0.00 0.00 0.00 1009.1
20260905054504 0 0.0 0.0 0.00 0.00 0.00 1009.3
20260905053111 0 0.0 0.0 0.00 0.00 0.00 1009.2
20260905051557 0 0.0 0.0 0.00 0.00 0.00 1009.1
20260905050051 0 0.0 0.0 0.00 0.00 0.00 1009.2
20260905044547 0 0.0 0.0 0.00 0.00 0.00 1009.2
20260905043053 0 0.0 0.0 0.00 0.00 0.00 1009.1
20260905041538 0 0.0 0.0 0.00 0.00 0.00 1008.9
20260905040043 0 0.0 0.0 0.00 0.00 0.00 1009.3
20260905034528 0 0.0 0.0 0.00 0.00 0.00 1009.2
20260905033024 62 191 0.0 0.0 0.00 0.00 0.00 89 1009.1
20260905031534 63 191 0.0 0.0 0.00 0.00 0.00 89 1009.1
20260905030022 63 191 0.0 0.0 0.00 0.00 0.00 88 1009.1
20260905024520 64 191 0.0 0.0 0.00 0.00 0.00 88 1009.2
20260905023021 64 191 0.0 0.0 0.00 0.00 0.00 87 1009.4
20260905021531 65 191 0.0 0.0 0.00 0.00 0.00 86 1009.4
20260905020023 65 191 0.0 0.0 0.00 0.00 0.00 85 1009.7
20260905014519 65 191 0.0 0.0 0.00 0.00 0.00 84 1009.7
20260905013018 66 191 0.0 0.0 0.00 0.00 0.00 84 1009.6
20260905011517 67 191 0.0 0.0 0.00 0.00 0.00 84 1009.5
20260905010016 68 191 0.0 0.0 0.00 0.00 0.00 80 1009.7
20260905004515 68 191 0.0 0.0 0.00 0.00 0.00 80 1009.6
20260905003034 69 191 0.0 0.0 0.00 0.00 0.00 79 1009.4
20260905001515 70 191 0.0 0.0 0.00 0.00 0.00 80 1009.4
20260905000014 70 188 0.0 0.0 0.00 0.00 0.00 79 1009.2
20260904234512 71 188 0.0 0.0 0.00 0.00 0.00 78 1009.2
20260904233031 72 188 0.0 0.0 0.00 0.00 0.00 77 1009.1
20260904231513 73 188 0.0 0.0 0.00 0.00 0.00 79 1008.6
20260904230031 73 155 0.0 2.0 0.00 0.00 0.00 76 1008.5
20260904224511 74 74 0.0 0.0 0.00 0.00 0.00 76 1008.6
20260904223011 75 70 0.0 0.0 0.00 0.00 0.00 73 1008.4
20260904221511 76 70 0.0 0.0 0.00 0.00 0.00 68 1008.4
20260904220014 77 70 0.0 0.0 0.00 0.00 0.00 66 1008.2
20260904214509 77 70 0.0 1.0 0.00 0.00 0.00 66 1008.3
20260904213009 78 37 0.0 0.0 0.00 0.00 0.00 65 1008.4
20260904211514 79 318 0.0 1.0 0.00 0.00 0.00 64 1008.3
20260904210009 79 311 0.0 2.0 0.00 0.00 0.00 62 1008.2
20260904204507 79 167 0.0 1.0 0.00 0.00 0.00 62 1008.2
20260904203006 80 195 0.0 3.0 0.00 0.00 0.00 61 1008.2
20260904201505 81 210 0.0 1.0 0.00 0.00 0.00 60 1008.4
20260904200005 82 67 0.0 3.0 0.00 0.00 0.00 57 1008.5
20260904194507 83 224 0.0 3.0 0.00 0.00 0.00 55 1008.5
20260904193002 83 242 0.0 4.0 0.00 0.00 0.00 53 1008.3
20260904191600 84 186 0.0 2.0 0.00 0.00 0.00 55 1008.3
20260904190059 85 190 0.0 3.0 0.00 0.00 0.00 52 1008.3
20260904184557 84 81 0.0 4.0 0.00 0.00 0.00 54 1008.5
20260904183101 84 49 0.0 5.0 0.00 0.00 0.00 57 1008.4
20260904181554 85 136 0.0 3.0 0.00 0.00 0.00 53 1008.5
20260904174551 85 70 1.0 4.0 0.00 0.00 0.00 55 1008.4
20260904173112 84 96 0.0 3.0 0.00 0.00 0.00 57 1008.6
20260904171555 86 68 0.0 4.0 0.00 0.00 0.00 57 1008.5
20260904170051 85 198 0.0 1.0 0.00 0.00 0.00 62 1008.9
20260904164542 84 231 0.0 2.0 0.00 0.00 0.00 59 1009.0
20260904163044 85 224 0.0 2.0 0.00 0.00 0.00 61 1009.0
20260904161537 83 328 0.0 3.0 0.00 0.00 0.00 66 1009.0
20260904160036 82 315 0.0 5.0 0.00 0.00 0.00 69 1009.2
20260904154533 82 304 0.0 2.0 0.00 0.00 0.00 69 1009.3
20260904153034 80 198 0.0 2.0 0.00 0.00 0.00 72 1009.5
20260904151527 78 113 0.0 4.0 0.00 0.00 0.00 72 1009.6
20260904150038 80 87 0.0 0.0 0.00 0.00 0.00 72 1009.6
20260904144522 79 248 0.0 0.0 0.00 0.00 0.00 79 1009.5
20260904143031 79 25 0.0 0.0 0.00 0.00 0.00 78 1009.6
20260904141520 77 314 0.0 0.0 0.00 0.00 0.00 81 1009.9
20260904140014 74 179 0.0 0.0 0.00 0.00 0.00 88 1010.1
20260904134509 71 79 0.0 0.0 0.00 0.00 0.00 93 1010.0
20260904133006 70 74 0.0 0.0 0.00 0.00 0.00 96 1010.1
20260904131503 68 75 0.0 0.0 0.00 0.00 0.00 97 1010.2
20260904130059 67 107 0.0 0.0 0.00 0.00 0.00 97 1010.1
20260904124603 66 107 0.0 0.0 0.00 0.00 0.00 97 1010.3
20260904123055 65 107 0.0 0.0 0.00 0.00 0.00 97 1010.2
20260904121553 64 96 0.0 0.0 0.00 0.00 0.00 96 1010.1
20260904120056 64 96 0.0 0.0 0.00 0.00 0.00 97 1010.1
20260904114549 64 61 0.0 0.0 0.00 0.00 0.00 96 1009.8
20260904113051 0 0.0 0.0 0.00 0.00 0.00 1009.9
20260904111542 0 0.0 0.0 0.00 0.00 0.00 1010.0
20260904110038 0 0.0 0.0 0.00 0.00 0.00 1009.8
20260904104534 0 0.0 0.0 0.00 0.00 0.00 1009.8
20260904103036 0 0.0 0.0 0.00 0.00 0.00 1009.7